TimeEDT,TemperatureF,Dew PointF,Humidity,Sea Level PressureIn,VisibilityMPH,Wind Direction,Wind SpeedMPH,Gust SpeedMPH,PrecipitationIn,Events,Conditions,WindDirDegrees,DateUTC
12:54 AM,46.0,41.0,83,30.08,10.0,Calm,Calm,-,N/A,,Partly Cloudy,0,2012-10-23 04:54:00
1:54 AM,46.0,42.1,86,30.08,10.0,ESE,3.5,-,N/A,,Partly Cloudy,120,2012-10-23 05:54:00
2:54 AM,46.0,41.0,83,30.07,10.0,Calm,Calm,-,N/A,,Scattered Clouds,0,2012-10-23 06:54:00
3:54 AM,44.1,39.9,85,30.08,10.0,East,4.6,-,N/A,,Scattered Clouds,100,2012-10-23 07:54:00
4:54 AM,44.1,39.9,85,30.07,10.0,East,5.8,-,N/A,,Scattered Clouds,80,2012-10-23 08:54:00
5:54 AM,44.1,39.9,85,30.08,10.0,East,3.5,-,N/A,,Scattered Clouds,90,2012-10-23 09:54:00
6:54 AM,45.0,43.0,93,30.11,10.0,NNE,3.5,-,N/A,,Mostly Cloudy,30,2012-10-23 10:54:00
7:54 AM,46.0,43.0,89,30.12,9.0,East,4.6,-,0.00,Rain,Light Rain,100,2012-10-23 11:54:00
8:54 AM,46.9,44.1,90,30.12,10.0,Calm,Calm,-,0.01,Rain,Light Rain,0,2012-10-23 12:54:00
9:54 AM,48.0,44.1,86,30.12,10.0,Calm,Calm,-,0.00,,Light Drizzle,0,2012-10-23 13:54:00
10:54 AM,50.0,46.9,89,30.12,9.0,Calm,Calm,-,0.00,Rain,Light Rain,0,2012-10-23 14:54:00
11:54 AM,52.0,48.0,86,30.11,9.0,Calm,Calm,-,0.02,Rain,Light Rain,0,2012-10-23 15:54:00
12:54 PM,53.1,51.1,93,30.08,7.0,Calm,Calm,-,0.02,Rain,Light Rain,0,2012-10-23 16:54:00
1:21 PM,53.6,51.8,94,30.08,7.0,NNE,4.6,-,0.01,Rain,Light Rain,30,2012-10-23 17:21:00
1:39 PM,53.6,50.0,88,30.08,9.0,NNE,3.5,-,0.01,,Overcast,30,2012-10-23 17:39:00
1:54 PM,52.0,50.0,93,30.07,7.0,NE,5.8,-,0.01,Rain,Light Rain,40,2012-10-23 17:54:00
2:01 PM,51.8,50.0,94,30.07,7.0,ENE,4.6,-,0.00,Rain,Light Rain,60,2012-10-23 18:01:00
2:54 PM,52.0,50.0,93,30.06,5.0,ENE,3.5,-,0.04,Rain,Light Rain,70,2012-10-23 18:54:00
3:01 PM,51.8,50.0,94,30.06,5.0,East,4.6,-,0.00,Rain,Light Rain,80,2012-10-23 19:01:00
3:54 PM,53.1,51.1,93,30.05,5.0,ENE,5.8,-,0.04,Rain,Light Rain,60,2012-10-23 19:54:00
4:34 PM,53.6,51.8,94,30.05,1.5,ENE,3.5,-,0.02,Rain,Rain,70,2012-10-23 20:34:00
4:54 PM,53.1,52.0,96,30.05,1.5,NE,3.5,-,0.07,Rain,Rain,50,2012-10-23 20:54:00
5:27 PM,53.6,51.8,94,30.06,1.5,NE,4.6,-,0.06,Rain,Light Rain,50,2012-10-23 21:27:00
5:34 PM,53.6,51.8,94,30.06,2.0,NE,4.6,-,0.06,Rain,Light Rain,50,2012-10-23 21:34:00
5:54 PM,53.1,52.0,96,30.06,1.8,NE,4.6,-,0.08,Rain,Light Rain,50,2012-10-23 21:54:00
6:02 PM,53.6,51.8,94,30.06,2.0,ENE,5.8,-,0.00,Rain,Light Rain,60,2012-10-23 22:02:00
6:09 PM,53.6,51.8,94,30.06,3.0,ENE,4.6,-,0.01,Rain,Light Rain,70,2012-10-23 22:09:00
6:19 PM,53.6,51.8,94,30.06,4.0,ENE,3.5,-,0.01,Rain,Light Rain,60,2012-10-23 22:19:00
6:35 PM,53.6,51.8,94,30.06,4.0,East,4.6,-,0.01,Rain,Light Rain,80,2012-10-23 22:35:00
6:43 PM,53.6,51.8,94,30.07,5.0,ENE,5.8,-,0.01,,Overcast,70,2012-10-23 22:43:00
6:54 PM,53.1,52.0,96,30.06,5.0,East,4.6,-,0.01,,Light Drizzle,80,2012-10-23 22:54:00
7:25 PM,53.6,51.8,94,30.06,5.0,East,6.9,-,0.01,,Light Drizzle,80,2012-10-23 23:25:00
7:54 PM,53.1,52.0,96,30.06,6.0,NE,3.5,-,0.01,,Light Drizzle,50,2012-10-23 23:54:00
8:07 PM,53.6,51.8,94,30.07,6.0,NE,5.8,-,0.00,,Light Drizzle,50,2012-10-24 00:07:00
8:39 PM,53.6,51.8,94,30.07,8.0,NE,5.8,-,0.00,,Overcast,50,2012-10-24 00:39:00
8:54 PM,53.1,52.0,96,30.07,8.0,ENE,5.8,-,0.00,,Overcast,60,2012-10-24 00:54:00
9:54 PM,54.0,52.0,93,30.08,8.0,Calm,Calm,-,N/A,,Overcast,0,2012-10-24 01:54:00
10:22 PM,53.6,51.8,94,30.08,7.0,NE,3.5,-,N/A,,Overcast,40,2012-10-24 02:22:00
10:46 PM,53.6,51.8,94,30.09,9.0,Calm,Calm,-,N/A,,Overcast,0,2012-10-24 02:46:00
10:54 PM,54.0,53.1,97,30.08,9.0,Calm,Calm,-,N/A,,Overcast,0,2012-10-24 02:54:00
11:03 PM,53.6,51.8,94,30.09,8.0,Calm,Calm,-,N/A,,Overcast,0,2012-10-24 03:03:00
11:11 PM,53.6,51.8,94,30.08,8.0,Calm,Calm,-,N/A,,Overcast,0,2012-10-24 03:11:00
11:54 PM,54.0,52.0,93,30.08,6.0,NNE,3.5,-,0.00,,Light Drizzle,20,2012-10-24 03:54:00